Temperature
25 24 24 23 22 21 23 24 24 24 23 23 23 22 22 21 20 18 19 19 19 19 19 19 19 19 18 18 18 18 18 18 18 18 18 18 18 18 18 18 18 18 18 18 18 18 18 18 18
25 24 24 23 22 21 23 24 24 24 23 23 23 22 21 20 19 18 19 19 19 19 19 19 19 19 19 19 18 18 18 18 18 18 18 18 18 18 18 18 18 18 18 18 18 18 18 18 18
25 24 24 22 22 22 23 24 24 25 24 24 23 22 21 20 19 19 19 19 20 19 19 19 19 19 19 19 18 18 18 18 18 18 18 18 18 18 18 18 18 18 18 18 18 18 18 18 18
25 24 24 22 23 24 25 25 25 25 24 23 23 22 21 21 20 20 20 20 20 19 19 19 19 19 19 19 19 18 18 18 18 18 18 18 18 18 18 18 18 18 18 18 18 18 18 18 18
26 25 23 23 24 26 26 26 25 24 24 23 22 21 21 21 21 20 20 20 20 20 19 19 19 19 19 19 19 18 18 18 18 18 18 18 18 18 18 18 18 18 18 18 18 18 18 18 18
26 24 23 23 25 26 26 25 25 24 23 23 22 21 20 21 20 20 20 20 20 20 19 19 19 19 19 19 19 18 18 18 18 18 18 18 18 18 18 18 18 18 18 18 18 18 18 18 18
26 23 24 25 25 26 26 26 25 24 23 23 22 21 21 20 21 20 20 20 20 20 20 19 19 19 19 19 19 19 18 18 18 18 18 18 18 18 18 18 18 18 18 18 18 18 18 18 18
28 24 25 25 25 26 27 26 25 24 24 23 23 21 21 21 21 21 20 20 20 20 20 19 19 19 19 19 19 19 19 18 18 18 18 18 18 18 18 18 18 18 18 18 18 18 18 18 18
28 24 24 25 25 26 27 26 25 25 24 24 23 22 21 21 21 21 20 20 20 19 19 19 19 19 19 19 19 19 18 18 18 18 18 18 18 18 18 18 18 18 18 18 18 18 18 18 18
27 24 26 27 26 26 27 26 25 24 24 23 23 22 22 21 21 21 20 20 20 20 19 19 19 19 19 19 19 19 18 18 18 18 18 18 18 18 18 18 18 18 18 18 18 18 18 18 18
28 26 28 28 28 28 27 26 25 24 23 23 22 22 22 22 21 21 21 20 20 20 19 19 19 19 19 19 19 19 18 18 18 18 18 18 18 18 18 18 18 18 18 18 18 18 18 18 18
28 29 29 28 28 28 27 26 25 24 24 23 23 23 22 22 21 21 21 21 20 20 20 20 19 19 19 19 19 19 19 18 18 18 18 18 18 18 18 18 18 18 18 18 18 18 18 18 18
28 29 29 29 28 28 27 26 25 24 24 24 23 23 22 22 22 21 21 21 20 20 20 20 19 19 19 19 19 19 19 19 18 18 18 18 18 18 18 18 18 18 18 18 18 18 18 18 18
28 29 29 28 28 27 26 26 25 24 24 24 23 23 22 22 22 21 21 21 20 20 20 20 20 19 19 19 19 19 19 19 18 18 18 18 18 18 18 18 18 18 18 18 18 18 18 18 18
29 27 27 27 28 27 26 24 24 24 24 24 23 23 23 22 22 22 21 21 21 20 20 20 20 19 19 19 19 19 19 19 19 18 18 18 18 18 18 18 18 18 18 18 18 18 18 18 18
27 26 25 27 27 27 25 23 24 25 24 23 23 23 23 22 22 22 22 21 21 21 20 20 20 20 19 19 19 19 19 19 19 18 18 18 18 18 18 18 18 18 18 18 18 18 18 18 18
25 24 25 26 27 26 24 23 24 25 24 24 23 23 23 23 22 22 22 21 21 21 20 20 20 20 20 19 19 19 19 19 19 19 18 18 18 18 18 18 18 18 18 18 18 18 18 18 18
24 25 26 26 27 27 24 24 25 25 24 24 24 23 23 23 22 22 22 21 21 21 20 20 20 20 20 19 19 19 19 19 19 19 19 19 18 18 18 18 18 18 18 18 18 18 18 18 18
26 26 26 26 27 26 25 24 24 25 24 24 24 23 23 23 23 22 22 21 21 21 20 20 20 20 20 19 19 19 19 19 19 19 19 19 18 18 18 18 18 18 18 18 18 18 18 18 17
27 26 26 26 27 26 24 24 24 24 24 24 24 23 23 23 23 22 22 22 21 21 21 20 20 20 20 19 19 19 19 19 19 19 19 19 18 18 18 18 18 18 18 18 18 18 18 18 17
27 26 26 26 26 26 25 24 24 24 25 24 24 24 24 23 23 22 22 22 21 21 21 21 20 20 20 19 19 19 19 19 19 19 19 19 18 18 18 18 18 18 18 18 18 18 18 18 17
26 27 28 27 25 23 24 22 23 23 24 24 24 24 24 23 23 23 22 22 22 22 21 21 20 20 20 19 19 19 19 19 19 19 19 19 18 18 18 18 18 18 18 18 18 18 17 17 17
27 28 28 27 25 23 23 22 22 23 23 23 24 24 24 24 24 23 23 23 22 22 21 21 21 20 20 20 19 19 19 19 19 19 18 18 18 18 18 18 18 18 18 18 18 17 17 17 17
28 27 26 23 22 23 23 23 23 22 23 24 24 25 24 24 24 24 23 23 22 22 21 21 21 20 20 20 19 19 19 19 19 19 18 18 18 18 18 18 18 18 18 18 17 17 17 17 17
27 24 23 23 22 22 23 23 23 24 25 25 24 24 25 24 24 23 23 23 22 22 22 21 21 21 20 20 20 19 19 19 19 19 18 18 18 18 18 18 18 18 18 17 17 17 17 17 17
26 24 23 23 23 23 23 23 24 25 26 26 26 25 25 24 24 24 24 23 23 22 22 22 21 21 20 20 20 19 19 19 19 19 18 18 18 18 18 18 18 18 18 17 17 17 17 17 17
26 24 23 22 22 23 23 24 25 26 25 25 25 25 25 24 24 24 24 24 23 23 22 22 22 21 21 20 20 20 19 19 19 19 18 18 18 18 18 18 18 18 18 17 17 17 17 17 16
26 24 21 21 22 23 23 24 23 24 24 24 24 24 25 25 24 24 24 24 23 23 23 22 22 22 21 21 20 20 19 19 19 19 18 18 18 18 18 18 18 18 17 17 17 17 17 16 16
27 25 22 20 21 21 23 23 25 24 24 24 24 25 25 25 25 24 24 24 24 23 23 22 22 21 21 21 20 20 19 19 19 19 18 18 18 18 18 17 17 17 17 17 17 17 16 16 16
26 25 22 22 22 20 21 23 26 25 24 24 25 25 25 25 25 25 24 24 23 23 23 22 22 22 21 21 20 20 20 19 19 18 18 18 18 18 17 17 17 17 17 17 17 17 16 16 16
Wind_Speed
10 7 3 1 4 5 7 7 10 12 9 10 11 10 10 8 5 7 3 7 9 6 8 11 13 15 15 16 16 16 16 17 17 18 18 17 17 17 17 17 16 17 17 17 17 17 18 17 17
6 4 1 3 5 6 6 8 14 14 12 12 12 13 11 9 9 9 5 8 9 8 9 11 13 15 15 16 16 16 17 17 17 17 17 17 17 17 17 17 16 16 16 16 16 16 16 16 15
5 3 2 3 4 7 7 9 15 14 12 10 7 8 6 6 8 6 8 11 9 8 10 12 15 15 15 15 15 16 16 16 17 17 17 17 16 16 16 16 15 15 15 15 15 15 15 14 13
3 2 3 5 6 6 10 12 15 14 12 11 10 8 6 6 6 10 14 13 11 8 10 13 15 15 15 15 15 15 16 16 16 16 15 16 16 15 15 15 14 14 14 14 14 14 13 13 12
2 3 5 5 7 8 12 15 15 14 9 11 12 10 7 7 15 17 14 13 11 8 9 13 15 15 15 15 14 15 15 15 15 14 15 14 15 15 15 14 13 13 13 13 13 13 12 12 11
2 3 5 6 9 9 11 15 17 17 16 14 13 11 6 9 14 15 13 11 11 9 9 12 14 14 14 14 14 14 14 14 13 13 13 13 14 14 14 13 13 13 13 12 12 12 12 11 10
3 4 4 7 9 9 11 12 14 15 15 10 11 8 6 8 11 14 13 11 9 9 8 9 11 12 13 12 13 13 13 13 13 13 13 13 13 13 12 12 12 12 12 12 12 11 10 9 8
4 4 4 5 9 9 11 10 12 15 12 13 9 8 8 9 12 14 12 11 9 7 7 7 8 9 10 10 11 12 12 12 12 12 12 12 11 11 11 10 11 11 11 11 10 10 9 8 6
3 4 3 6 9 9 12 15 11 11 13 8 7 10 13 14 15 13 11 9 8 7 5 5 6 7 8 8 10 10 11 11 10 9 10 9 7 7 8 8 9 9 9 8 8 8 7 5 4
4 6 6 7 10 12 14 16 10 10 14 12 13 12 14 14 14 13 12 10 8 8 6 5 5 5 6 7 8 7 7 7 7 6 6 5 5 5 6 7 8 8 7 6 6 5 4 3 2
5 6 6 9 11 13 13 11 9 13 12 15 17 16 13 13 11 12 10 10 9 9 8 6 6 6 6 4 6 5 4 5 5 5 6 5 4 4 4 4 4 4 5 3 3 3 3 2 2
6 6 8 8 10 11 11 10 9 11 12 15 15 15 12 13 11 11 10 9 8 8 8 7 6 5 6 6 5 5 4 4 4 5 6 5 3 3 4 4 4 3 3 3 2 2 3 3 3
8 7 9 10 10 11 13 13 12 11 14 14 15 14 13 12 10 9 10 9 9 8 7 7 6 6 5 5 4 5 4 5 5 5 6 7 4 3 3 3 4 4 5 4 3 2 2 2 2
6 8 10 10 11 12 17 12 10 11 13 14 14 12 12 12 11 9 9 9 8 8 7 6 6 6 6 4 3 4 5 5 5 5 6 7 6 4 3 3 3 3 5 5 4 3 2 2 2
5 8 6 7 9 9 14 8 11 14 13 13 12 12 11 11 12 12 11 10 10 9 8 6 6 5 5 5 4 4 5 5 4 4 6 6 6 5 4 3 2 3 4 4 2 2 2 2 2
5 6 3 1 6 6 10 8 10 14 15 13 12 12 10 9 11 11 11 10 9 9 8 7 7 6 5 4 3 3 4 5 4 5 5 6 5 5 3 2 2 2 3 3 3 2 2 2 2
4 2 2 2 4 5 6 7 10 12 14 13 12 12 11 10 9 10 11 11 10 9 8 7 6 6 5 4 3 3 4 4 4 4 4 4 4 5 4 2 2 2 2 2 2 2 3 3 2
3 3 4 5 4 5 6 8 12 13 14 13 13 11 11 12 11 11 11 11 9 8 7 7 6 6 5 3 3 2 2 2 2 3 4 4 3 4 3 2 2 2 2 2 2 3 2 3 2
7 5 5 4 4 5 8 10 13 13 12 11 11 11 11 11 10 11 12 11 9 8 8 7 6 5 4 2 2 2 1 1 1 1 2 3 3 3 3 2 2 2 2 2 3 3 3 2 2
5 5 4 1 3 4 6 7 10 12 14 15 15 13 12 10 10 10 10 10 9 9 8 7 7 6 5 3 3 2 2 1 1 1 1 2 2 3 3 3 2 2 2 2 2 3 2 1 2
5 8 7 5 2 4 5 1 6 8 7 10 12 12 13 15 15 13 12 10 10 9 9 8 7 6 5 4 2 2 2 2 2 1 1 1 2 2 3 3 3 2 2 2 2 2 3 2 1
5 8 8 7 5 2 4 3 6 8 8 11 12 12 13 14 13 12 12 11 12 11 9 8 7 6 5 5 4 4 3 2 2 2 1 0 1 2 3 3 3 2 2 2 2 2 2 3 1
7 6 5 5 5 2 1 4 5 5 8 12 13 15 15 15 15 14 13 13 12 11 10 8 7 6 5 5 5 5 3 2 2 1 1 1 1 1 2 3 2 2 2 1 1 1 1 2 2
6 4 6 5 5 1 4 4 5 7 13 13 12 14 14 15 15 14 12 11 10 9 9 8 8 6 6 5 5 5 5 4 3 2 2 0 1 1 1 3 2 2 1 1 1 1 1 1 1
5 6 4 4 4 4 4 4 8 9 11 14 15 15 14 14 14 13 12 12 11 10 10 9 8 7 6 6 5 5 5 5 5 3 3 2 1 0 1 2 2 1 1 1 1 1 1 1 1
5 10 8 6 5 4 1 4 7 7 9 12 13 13 13 13 13 14 14 14 13 12 11 10 9 7 6 6 5 5 5 4 3 3 3 3 2 1 1 2 2 2 2 2 2 2 1 2 2
6 5 9 7 3 1 3 3 6 1 6 9 10 12 14 14 15 15 14 14 13 14 13 12 10 8 7 6 6 5 4 4 4 3 3 2 2 2 3 3 3 3 3 2 3 2 2 2 2
8 9 7 6 5 2 3 4 5 6 7 9 12 13 14 14 14 14 14 13 12 12 11 11 10 9 7 6 6 5 5 4 4 4 3 3 3 3 4 3 3 3 2 2 3 2 2 3 2
4 5 6 5 6 6 3 7 8 12 12 12 13 14 14 15 15 14 13 12 12 11 11 10 9 8 7 6 6 5 5 4 4 4 4 4 3 4 4 4 4 3 2 2 3 2 3 3 3
7 8 8 6 4 6 5 7 6 10 10 11 12 12 12 12 12 12 12 11 11 11 10 10 9 9 7 7 6 6 5 5 5 4 4 4 4 4 4 4 4 3 3 3 3 3 3 3 3
Wind_Direction
162 156 154 103 53 61 84 91 96 83 69 65 73 79 76 63 90 121 145 132 123 111 110 104 101 98 96 95 95 96 96 102 105 105 106 106 106 106 106 104 105 108 111 111 111 113 115 117 118
155 155 118 62 82 90 91 101 96 97 111 103 83 79 72 68 86 113 122 126 119 114 112 110 108 104 101 99 97 96 96 100 105 107 108 108 107 106 106 106 107 109 112 114 116 116 117 119 121
160 173 99 72 92 118 119 110 106 104 102 96 88 66 64 90 100 117 132 128 113 108 113 117 113 109 106 103 100 99 99 100 104 108 110 110 108 108 107 107 107 110 115 118 120 121 121 121 120
147 91 52 79 101 119 123 121 114 105 85 78 91 76 68 94 107 124 129 124 113 105 115 118 116 114 111 108 105 104 103 103 105 106 109 110 110 109 109 108 108 111 116 121 123 124 124 122 120
96 84 64 78 102 109 113 117 113 103 94 92 94 99 90 89 113 124 128 126 121 115 119 120 119 118 116 113 110 109 107 106 106 109 110 111 111 110 110 110 110 113 117 121 125 124 124 125 123
71 78 77 93 102 107 113 116 109 105 110 109 104 104 102 120 122 131 130 127 126 125 123 125 124 122 120 117 115 113 110 109 110 112 112 114 112 112 111 110 111 116 121 124 127 125 123 122 121
121 103 118 117 112 114 122 123 117 121 121 119 120 105 116 128 131 134 131 127 124 126 125 126 130 129 128 123 123 121 116 114 114 117 117 117 118 117 116 114 114 117 124 127 129 128 126 126 124
152 104 96 107 115 115 117 111 122 124 118 131 124 118 144 150 132 127 128 127 128 129 129 131 133 131 131 133 132 126 125 123 120 120 122 123 124 123 120 119 120 122 125 128 131 132 133 132 129
120 94 128 137 129 125 120 109 109 105 117 118 105 122 145 140 127 122 122 122 131 137 142 141 139 140 141 139 135 133 132 131 130 127 128 127 128 133 135 131 131 132 134 135 138 139 138 138 139
121 138 174 155 138 135 127 121 120 111 111 109 110 119 132 132 130 131 136 140 144 150 156 153 152 154 153 145 139 145 143 144 144 145 145 144 147 152 151 150 146 142 140 140 143 147 149 152 168
126 141 136 122 130 132 129 125 117 122 129 137 137 140 139 131 133 139 145 147 152 156 156 156 156 160 163 151 147 163 163 161 163 169 175 168 170 179 166 158 157 154 148 151 157 177 200 198 209
104 117 121 121 119 122 126 124 119 131 147 148 144 144 141 141 145 147 147 146 144 143 151 159 158 153 160 153 156 167 166 167 178 186 178 169 165 165 169 173 179 178 183 183 200 203 209 217 221
108 112 115 114 106 115 113 118 119 128 139 141 138 137 142 144 146 147 145 141 138 138 141 149 148 143 143 143 155 155 167 172 180 172 175 170 161 157 164 173 180 189 196 192 191 199 194 193 204
134 114 114 118 110 117 118 121 114 138 141 140 141 143 147 146 145 143 141 139 138 137 138 137 139 141 137 136 141 149 163 171 170 163 168 167 166 162 157 158 170 190 202 203 198 192 171 162 142
91 93 90 120 112 125 112 109 136 149 143 142 147 148 148 148 147 150 152 147 144 144 142 142 140 131 129 127 137 142 153 152 151 154 155 166 164 160 153 157 172 200 202 191 174 146 114 118 118
60 75 98 189 121 137 113 147 163 156 150 150 155 155 151 154 156 156 152 148 146 146 147 151 141 131 131 129 125 135 142 146 149 150 154 171 172 164 159 148 173 197 170 149 139 131 112 95 97
39 108 168 231 167 141 118 158 174 167 156 160 162 161 157 159 158 157 156 154 152 152 152 150 143 143 145 141 121 129 136 145 155 154 161 174 170 163 159 149 168 167 135 130 147 133 132 124 112
216 185 197 208 202 143 138 164 169 174 168 168 165 162 161 164 166 162 158 157 154 153 147 146 145 146 141 123 95 86 94 120 144 161 173 174 174 168 159 157 155 142 121 120 122 134 134 139 136
177 191 214 220 185 143 162 165 172 176 172 171 169 169 169 171 169 162 160 158 153 150 145 145 147 156 141 122 119 117 143 166 160 189 179 169 169 167 144 135 126 128 135 149 138 136 132 136 126
174 187 215 247 152 142 157 179 182 179 182 180 177 177 175 170 166 167 165 164 162 163 157 149 157 165 161 158 162 166 163 181 179 166 145 164 160 170 153 149 152 148 137 132 136 135 138 190 160
207 188 190 180 106 88 116 168 190 192 184 184 185 180 176 176 176 176 172 172 167 167 167 167 167 168 172 163 135 106 77 51 52 51 22 39 126 135 136 143 145 146 147 161 173 163 158 190 232
221 211 181 171 131 177 146 184 240 197 191 192 190 185 182 181 177 176 173 174 176 177 171 167 167 169 169 156 150 149 153 163 200 188 176 350 98 122 140 137 137 142 147 164 188 168 168 164 205
196 187 158 156 137 107 72 136 256 181 199 204 197 192 185 182 176 178 179 178 177 175 171 169 165 169 168 160 159 154 156 174 174 141 129 60 25 74 108 125 127 131 143 161 158 157 162 169 184
160 85 50 54 77 93 221 155 242 201 201 200 195 192 184 179 177 180 179 170 170 168 166 167 167 174 171 165 159 160 161 158 147 153 156 141 33 30 68 105 105 113 118 118 148 149 152 156 159
118 104 53 15 15 248 217 165 235 221 198 191 189 189 182 177 176 175 171 170 169 169 169 169 168 175 178 170 167 165 160 155 160 169 170 158 118 59 55 98 96 92 93 79 100 93 82 102 121
171 142 154 175 205 258 279 211 250 224 193 186 181 179 174 174 175 176 177 173 171 171 172 170 170 175 178 172 168 160 155 153 159 165 160 159 161 170 139 116 103 83 73 71 80 83 58 74 85
153 157 159 136 156 136 281 282 314 141 154 167 170 167 173 178 177 179 180 175 173 173 177 175 173 174 175 171 162 155 153 151 151 150 151 151 153 147 128 119 106 89 81 79 79 68 46 69 75
156 151 102 118 142 188 274 243 216 208 190 179 173 174 178 175 177 181 181 178 176 176 176 174 172 174 171 168 166 163 158 154 146 130 127 127 124 119 118 113 104 91 83 80 75 66 60 71 56
144 123 120 127 146 154 204 258 218 199 194 183 182 177 177 176 177 179 181 178 174 172 170 170 169 164 166 168 166 157 157 151 137 135 141 138 131 127 118 117 110 98 80 72 84 79 77 77 56
168 171 147 150 192 162 164 256 243 191 184 174 171 170 171 174 174 172 169 166 166 167 167 167 167 167 170 166 159 158 155 145 141 147 148 136 130 128 123 117 110 107 92 82 92 95 81 80 72
Height
1502 1502 1502 1503 1506 1516 1519 1514 1508 1508 1510 1511 1509 1510 1513 1516 1521 1530 1527 1525 1524 1522 1522 1522 1521 1521 1520 1519 1519 1519 1519 1518 1519 1520 1521 1521 1522 1522 1523 1523 1523 1524 1525 1526 1527 1529 1531 1534 1536
1501 1502 1504 1505 1514 1529 1524 1512 1511 1510 1512 1512 1513 1514 1515 1520 1521 1524 1525 1526 1525 1524 1524 1524 1524 1523 1523 1523 1523 1522 1522 1521 1522 1523 1524 1524 1525 1525 1525 1526 1526 1526 1527 1529 1531 1532 1534 1537 1539
1502 1502 1505 1507 1516 1525 1522 1512 1511 1512 1512 1511 1514 1517 1519 1523 1524 1525 1527 1527 1527 1526 1526 1526 1526 1526 1526 1526 1526 1526 1525 1525 1526 1526 1527 1527 1527 1528 1528 1528 1528 1528 1529 1531 1533 1535 1537 1539 1541
1502 1504 1506 1512 1518 1512 1510 1511 1510 1512 1515 1515 1516 1520 1524 1526 1526 1527 1529 1529 1529 1528 1528 1528 1528 1529 1529 1529 1529 1529 1529 1529 1529 1529 1529 1530 1530 1530 1530 1530 1530 1529 1530 1532 1534 1537 1539 1541 1543
1503 1505 1511 1518 1515 1509 1507 1509 1510 1512 1516 1519 1518 1523 1527 1529 1529 1530 1531 1531 1531 1530 1530 1530 1531 1531 1531 1531 1532 1532 1532 1532 1532 1532 1532 1532 1533 1533 1533 1532 1532 1531 1532 1533 1536 1539 1541 1543 1545
1504 1506 1519 1524 1517 1511 1510 1510 1511 1515 1519 1521 1522 1525 1530 1532 1531 1532 1533 1534 1534 1533 1533 1533 1534 1534 1534 1534 1535 1535 1535 1535 1535 1535 1535 1535 1536 1536 1536 1535 1534 1533 1534 1535 1538 1541 1543 1545 1548
1504 1509 1517 1517 1517 1514 1512 1512 1512 1516 1520 1523 1524 1527 1532 1534 1534 1534 1535 1536 1536 1536 1536 1536 1536 1536 1536 1537 1537 1537 1538 1538 1538 1538 1538 1538 1539 1539 1539 1539 1538 1537 1537 1538 1541 1544 1546 1548 1550
1502 1508 1515 1516 1517 1517 1512 1512 1515 1517 1521 1525 1525 1527 1532 1535 1535 1536 1537 1538 1538 1539 1539 1539 1539 1539 1539 1539 1539 1540 1540 1540 1540 1540 1541 1541 1541 1542 1542 1542 1542 1541 1542 1543 1545 1547 1548 1550 1552
1502 1512 1519 1515 1515 1515 1512 1513 1518 1519 1522 1525 1526 1528 1531 1534 1536 1538 1539 1540 1540 1541 1541 1541 1541 1542 1542 1542 1542 1542 1543 1543 1543 1543 1544 1544 1544 1545 1545 1545 1545 1545 1546 1547 1548 1549 1550 1552 1554
1500 1513 1511 1505 1507 1510 1512 1513 1517 1522 1524 1527 1529 1532 1534 1536 1537 1538 1539 1540 1541 1542 1543 1543 1543 1544 1544 1544 1545 1545 1545 1545 1546 1546 1546 1547 1547 1547 1548 1548 1548 1549 1549 1550 1551 1552 1553 1554 1555
1498 1504 1502 1503 1505 1508 1512 1515 1517 1521 1526 1527 1528 1532 1535 1537 1538 1539 1540 1541 1542 1543 1544 1545 1545 1545 1546 1546 1547 1547 1547 1548 1548 1548 1548 1549 1549 1549 1549 1550 1550 1551 1551 1552 1553 1553 1554 1555 1556
1498 1499 1500 1503 1506 1509 1512 1516 1519 1520 1525 1527 1529 1532 1535 1537 1539 1540 1541 1542 1543 1544 1545 1546 1546 1547 1547 1548 1548 1549 1549 1549 1550 1550 1550 1550 1550 1551 1551 1552 1552 1553 1553 1554 1554 1554 1555 1556 1557
1499 1501 1502 1504 1506 1509 1513 1516 1520 1523 1526 1529 1531 1533 1535 1537 1539 1541 1542 1543 1544 1545 1546 1547 1548 1548 1548 1549 1550 1550 1550 1551 1551 1552 1552 1552 1552 1552 1553 1553 1554 1554 1555 1555 1555 1555 1556 1556 1557
1500 1501 1504 1506 1508 1511 1514 1519 1521 1526 1528 1531 1533 1535 1536 1538 1539 1541 1542 1543 1544 1545 1546 1548 1548 1549 1550 1550 1551 1551 1551 1552 1552 1553 1553 1553 1553 1553 1554 1554 1554 1555 1555 1555 1556 1556 1556 1556 1557
1501 1505 1508 1509 1510 1515 1516 1525 1524 1525 1528 1531 1534 1536 1537 1539 1540 1541 1542 1543 1545 1546 1547 1548 1549 1550 1551 1551 1552 1552 1553 1553 1554 1554 1554 1554 1554 1555 1555 1555 1555 1555 1555 1556 1556 1556 1556 1556 1557
1505 1513 1520 1513 1511 1516 1520 1535 1526 1526 1528 1531 1533 1536 1537 1539 1540 1541 1542 1544 1545 1546 1547 1549 1549 1550 1551 1552 1552 1553 1553 1554 1554 1555 1555 1555 1555 1555 1555 1555 1555 1555 1555 1556 1556 1556 1556 1556 1556
1516 1526 1525 1518 1512 1514 1520 1530 1527 1527 1528 1530 1532 1534 1536 1538 1540 1541 1542 1544 1545 1546 1547 1548 1549 1550 1551 1552 1553 1553 1554 1554 1555 1555 1555 1555 1555 1555 1555 1555 1555 1555 1555 1555 1555 1555 1555 1555 1555
1526 1524 1522 1520 1512 1513 1520 1524 1523 1526 1527 1528 1530 1532 1535 1537 1539 1540 1542 1543 1545 1546 1547 1548 1549 1550 1551 1552 1553 1553 1554 1554 1555 1555 1555 1555 1555 1555 1554 1555 1555 1555 1555 1554 1554 1554 1554 1554 1554
1511 1516 1518 1514 1509 1513 1519 1521 1521 1523 1525 1527 1529 1531 1533 1535 1537 1539 1541 1543 1544 1545 1546 1547 1548 1550 1551 1552 1552 1553 1554 1554 1554 1554 1555 1555 1554 1554 1554 1554 1554 1554 1554 1553 1553 1552 1552 1552 1552
1507 1515 1516 1512 1507 1513 1520 1522 1519 1520 1521 1523 1525 1528 1531 1534 1536 1538 1540 1541 1543 1544 1545 1547 1548 1549 1550 1551 1552 1553 1553 1554 1554 1554 1554 1554 1554 1554 1554 1553 1553 1553 1552 1552 1551 1551 1550 1550 1550
1508 1512 1513 1515 1512 1513 1521 1529 1524 1522 1522 1523 1524 1526 1529 1531 1533 1535 1538 1539 1541 1543 1544 1546 1547 1548 1550 1551 1552 1552 1553 1553 1553 1553 1553 1553 1553 1553 1553 1552 1552 1551 1551 1550 1550 1549 1548 1548 1549
1511 1500 1502 1508 1519 1531 1526 1546 1530 1523 1522 1522 1523 1524 1526 1529 1531 1533 1535 1537 1539 1541 1543 1544 1546 1547 1549 1550 1551 1551 1551 1552 1552 1553 1553 1553 1553 1552 1552 1551 1550 1550 1549 1549 1548 1547 1547 1546 1546
1498 1493 1499 1505 1518 1531 1529 1541 1534 1523 1525 1521 1519 1520 1522 1525 1528 1530 1532 1535 1537 1540 1542 1544 1545 1547 1548 1549 1550 1550 1551 1551 1552 1552 1552 1552 1552 1551 1551 1550 1549 1549 1548 1547 1546 1545 1545 1544 1544
1489 1496 1505 1514 1525 1543 1532 1538 1536 1523 1517 1515 1515 1517 1519 1523 1526 1528 1531 1534 1536 1538 1540 1542 1544 1545 1547 1548 1549 1549 1550 1550 1551 1551 1551 1551 1551 1550 1550 1549 1548 1547 1546 1545 1545 1544 1543 1543 1543
1492 1514 1538 1542 1550 1545 1527 1531 1528 1508 1504 1506 1509 1513 1516 1520 1523 1526 1529 1532 1534 1537 1539 1541 1542 1544 1545 1546 1547 1548 1549 1550 1550 1550 1550 1550 1550 1549 1549 1548 1547 1546 1545 1544 1543 1543 1542 1542 1541
1495 1508 1536 1550 1552 1543 1527 1531 1515 1497 1498 1501 1505 1508 1513 1517 1520 1523 1526 1529 1532 1534 1537 1539 1541 1542 1544 1545 1546 1547 1548 1549 1549 1549 1549 1549 1549 1548 1548 1547 1546 1545 1544 1543 1543 1542 1541 1541 1540
1493 1504 1506 1527 1535 1542 1535 1521 1506 1495 1498 1501 1504 1507 1510 1514 1517 1520 1524 1527 1529 1532 1534 1537 1539 1541 1542 1544 1545 1546 1547 1547 1548 1548 1548 1548 1548 1547 1547 1546 1545 1544 1543 1543 1542 1541 1541 1540 1540
1482 1492 1512 1528 1544 1550 1538 1528 1521 1505 1501 1500 1502 1504 1507 1511 1515 1518 1521 1524 1527 1530 1533 1535 1537 1539 1541 1542 1543 1544 1545 1546 1547 1547 1547 1547 1547 1546 1546 1545 1544 1544 1543 1542 1541 1541 1540 1540 1539
1485 1493 1507 1522 1527 1545 1547 1532 1497 1496 1495 1497 1499 1501 1504 1507 1511 1515 1519 1522 1525 1528 1531 1533 1536 1538 1539 1541 1542 1543 1544 1545 1545 1546 1546 1546 1545 1545 1545 1544 1544 1543 1542 1541 1541 1540 1540 1539 1539
1476 1486 1501 1519 1526 1529 1535 1525 1484 1487 1489 1492 1496 1499 1502 1505 1510 1513 1516 1520 1524 1527 1530 1532 1534 1536 1538 1539 1540 1541 1542 1543 1544 1544 1545 1545 1544 1544 1544 1544 1543 1542 1541 1541 1540 1539 1539 1539 1538